ARIANE 44LP DEB, 25541

Orbit data source: Space-Track

ARIANE 44LP DEB, 25541 is space debris in HEO originally from a launch on Sun, 11 Dec 1988 UTC launched from the French Guiana (FRGUI). Debris objects in space refer to the collection of defunct objects orbiting the Earth. Examples of debris include non-operational satellites, rocket bodies, and fragments generated from explosions, collisions, or faulty payload assembly.

Loading next visibility...
Identifier
25541, 1988-109H
Orbit
HEO
Country
Flag of FRFR
Related business
Manufacturer
Unknown
Mission
Spacecraft
Bus & Motor
Unknown
Mass
Unknown
Launch date (UTC)
1988-12-11 (38 years ago)
Launch vehicle
Unknown
Launch site
French Guiana (FRGUI)
Object type
Payload
Rocket body
Debris
Shape & HBR
Unknown shape, 1.1 m
Radar Cross Section
Large (>1 m²)

Expand to show TLE details & history
Last TLE update: 1 day ago

TLE from 1 day ago
0 ARIANE 44LP DEB
1 25541U 88109H   26256.61353702 -.00000146  00000-0 -36626-4 0  9991
2 25541   6.6387 120.7949 7068362 281.3760  12.8026  2.41419446239592
Epoch: 2026-09-13T14:43Z
TLE epoch observation values (Epoch: 2026-09-13T14:43:29.598Z)
Latitude
0.00002°
Longitude
-92.36024°
Altitude
3,978.587 km
Speed
7.745 km/s
True Right ascension
08h 04m 28s
True Declination
0° 00' 00"
Sunlit
Object was in daylight at epoch
Visualization orbit readout
Latitude
Unknown
Longitude
Unknown
Altitude
Unknown
Speed
Unknown
Apparent Right ascension
Unknown
Apparent Declination
Unknown
Sunlit
N/A
Visualization observer readout
Local Sidereal Time
07:33:27
Azimuth
Unknown
Elevation
Unknown
Doppler factor
Unknown
Orbital elements
Apogee altitude
33,693.945 km
Perigee altitude
504.588 km
Semi-major axis
23,477.403 km
Eccentricity
0.70684
Inclination
6.6387°
RAAN
120.7949°
Arg. of periapsis
281.376°
True anomaly
78.48072°
Mean anomaly
12.8026°
Eccentric anomaly
37.40126°
Mean motion
0.60335 °/min
Orbital period
596.67 mins
BSTAR
-0.000036626
Loading maneuver chart data...
Computing Atmospheric mass density...
Loading historical data...
Loading historical data...
Loading historical data...
Loading historical data...
Loading historical data...
Loading historical data...
Loading historical data...

Documentation

Showing up to 5 results
|